DAL194 KATL-LEBL

Flight info

Callsign DAL194
Flight time N/A
Altitude 37000
Route PHIIL3 HRTWL Q64 TYI DCT ORF AR9 ZIBUT DCT LARGE/N0483F390 DCT SLATN/M084F370 NATY 40N060W/M084F390 43N040W 44N030W 44N020W/M084F410 DCT MUDOS/N0485F410 DCT STG DCT SUSOS/N0494F400 N725 DGO/N0500F320 N725 ELSAP/N0502F300 N725 LOBAR
Aircraft A359/H-SDE2E3GHIJ3J4J5LM1ORWXY/LB1D1

Departure

Time N/A
Airport Hartsfield Jackson Atlanta International Airport (KATL)

Arrival

Time 2026-05-05 12:31
Airport Josep Tarradellas Barcelona-El Prat Airport (LEBL)
Time Latitude Longitude Altitude Speed Heading
2026-05-05 11:58 42.26318 -1.97338 36948 ft 518 kts 109°
2026-05-05 11:58 42.24289 -1.87986 36943 ft 519 kts 109°
2026-05-05 11:59 42.22268 -1.78642 36940 ft 519 kts 109°
2026-05-05 11:59 42.20267 -1.69367 36952 ft 519 kts 109°
2026-05-05 12:00 42.18251 -1.60050 36943 ft 520 kts 109°
2026-05-05 12:00 42.16223 -1.50704 36944 ft 520 kts 109°
2026-05-05 12:01 42.14188 -1.41350 36949 ft 521 kts 109°
2026-05-05 12:01 42.12158 -1.32034 36949 ft 521 kts 110°
2026-05-05 12:02 42.10113 -1.22687 36941 ft 521 kts 110°
2026-05-05 12:02 42.08047 -1.13405 36945 ft 521 kts 110°
2026-05-05 12:03 42.05960 -1.04036 36938 ft 523 kts 110°
2026-05-05 12:03 42.03899 -0.94742 36710 ft 524 kts 110°
2026-05-05 12:04 42.02852 -0.90031 36191 ft 525 kts 111°
2026-05-05 12:04 42.01817 -0.85394 35674 ft 522 kts 111°
2026-05-05 12:04 42.00769 -0.80756 35347 ft 514 kts 111°
2026-05-05 12:04 41.99726 -0.76182 34887 ft 511 kts 111°
2026-05-05 12:05 41.98694 -0.71656 34264 ft 512 kts 112°
2026-05-05 12:05 41.97648 -0.67066 33554 ft 515 kts 112°
2026-05-05 12:05 41.96598 -0.62462 32823 ft 518 kts 112°
2026-05-05 12:05 41.95556 -0.57881 32095 ft 520 kts 112°
2026-05-05 12:06 41.94494 -0.53214 31383 ft 521 kts 113°
2026-05-05 12:06 41.93446 -0.48600 30702 ft 523 kts 113°
2026-05-05 12:06 41.92395 -0.43971 29975 ft 524 kts 113°
2026-05-05 12:06 41.91326 -0.39315 29209 ft 524 kts 113°
2026-05-05 12:07 41.90254 -0.34666 28399 ft 525 kts 114°
2026-05-05 12:07 41.89154 -0.29947 27572 ft 525 kts 114°
2026-05-05 12:07 41.88071 -0.25356 26878 ft 522 kts 114°
2026-05-05 12:07 41.86985 -0.20711 26397 ft 514 kts 114°
2026-05-05 12:08 41.85944 -0.16231 25880 ft 509 kts 114°
2026-05-05 12:08 41.84894 -0.11703 25295 ft 505 kts 114°
2026-05-05 12:08 41.83870 -0.07272 24658 ft 500 kts 114°
2026-05-05 12:08 41.82849 -0.02854 24074 ft 496 kts 114°
2026-05-05 12:09 41.81833 0.01535 23499 ft 491 kts 114°
2026-05-05 12:09 41.80832 0.05854 22943 ft 485 kts 113°
2026-05-05 12:09 41.79825 0.10175 22371 ft 480 kts 113°
2026-05-05 12:09 41.78837 0.14389 21769 ft 475 kts 113°
2026-05-05 12:10 41.77852 0.18577 21199 ft 470 kts 112°
2026-05-05 12:10 41.76881 0.22697 20611 ft 465 kts 112°
2026-05-05 12:10 41.75915 0.26777 20064 ft 460 kts 112°
2026-05-05 12:10 41.74789 0.30763 19546 ft 447 kts 121°
2026-05-05 12:11 41.73255 0.34252 19353 ft 427 kts 130°
2026-05-05 12:11 41.71504 0.37326 19148 ft 413 kts 133°
2026-05-05 12:11 41.69732 0.40305 18907 ft 402 kts 134°
2026-05-05 12:11 41.68013 0.43183 18700 ft 391 kts 134°
2026-05-05 12:12 41.66331 0.46011 18469 ft 381 kts 134°
2026-05-05 12:12 41.64701 0.48769 18215 ft 373 kts 134°
2026-05-05 12:12 41.63099 0.51476 17832 ft 369 kts 134°
2026-05-05 12:12 41.61524 0.54136 17388 ft 367 kts 134°
2026-05-05 12:13 41.59948 0.56798 16949 ft 364 kts 134°
2026-05-05 12:13 41.58387 0.59426 16537 ft 362 kts 133°
2026-05-05 12:13 41.56831 0.62052 16125 ft 360 kts 131°
2026-05-05 12:13 41.55457 0.64893 15701 ft 363 kts 122°
2026-05-05 12:14 41.54447 0.67948 15276 ft 364 kts 114°
2026-05-05 12:14 41.53667 0.71167 14894 ft 362 kts 111°
2026-05-05 12:14 41.52946 0.74359 14511 ft 360 kts 110°
2026-05-05 12:14 41.52231 0.77554 14128 ft 356 kts 110°
2026-05-05 12:15 41.51524 0.80693 13738 ft 353 kts 110°
2026-05-05 12:15 41.50815 0.83805 13333 ft 351 kts 110°
2026-05-05 12:15 41.50102 0.86920 12928 ft 349 kts 110°
2026-05-05 12:15 41.49395 0.89985 12529 ft 346 kts 110°
2026-05-05 12:16 41.48690 0.93032 12138 ft 344 kts 110°
2026-05-05 12:16 41.47987 0.96074 11750 ft 341 kts 110°
2026-05-05 12:16 41.47291 0.99095 11097 ft 347 kts 110°
2026-05-05 12:16 41.46547 1.02198 10264 ft 352 kts 110°
2026-05-05 12:17 41.45820 1.05234 9547 ft 336 kts 109°
2026-05-05 12:17 41.45142 1.08112 9039 ft 320 kts 109°
2026-05-05 12:17 41.44494 1.10907 8647 ft 304 kts 109°
2026-05-05 12:17 41.43888 1.13532 8302 ft 291 kts 109°
2026-05-05 12:18 41.43301 1.16079 8033 ft 285 kts 109°
2026-05-05 12:18 41.42716 1.18610 7938 ft 287 kts 109°
2026-05-05 12:18 41.42132 1.21140 7806 ft 287 kts 109°
2026-05-05 12:18 41.41546 1.23671 7680 ft 286 kts 109°
2026-05-05 12:19 41.40962 1.26194 7552 ft 286 kts 109°
2026-05-05 12:19 41.40370 1.28740 7431 ft 286 kts 108°
2026-05-05 12:19 41.39784 1.31255 7305 ft 285 kts 108°
2026-05-05 12:19 41.39195 1.33781 7182 ft 285 kts 109°
2026-05-05 12:20 41.38610 1.36258 7052 ft 284 kts 109°
2026-05-05 12:20 41.38013 1.38773 6931 ft 283 kts 109°
2026-05-05 12:20 41.37422 1.41266 6800 ft 282 kts 109°
2026-05-05 12:20 41.36836 1.43741 6672 ft 281 kts 109°
2026-05-05 12:21 41.36249 1.46213 6541 ft 280 kts 109°
2026-05-05 12:21 41.35662 1.48680 6425 ft 279 kts 109°
2026-05-05 12:21 41.35079 1.51131 6257 ft 279 kts 108°
2026-05-05 12:21 41.34467 1.53596 6023 ft 277 kts 112°
2026-05-05 12:22 41.33635 1.55899 5791 ft 275 kts 121°
2026-05-05 12:22 41.32625 1.58047 5573 ft 273 kts 124°
2026-05-05 12:22 41.31601 1.60134 5292 ft 272 kts 124°
2026-05-05 12:22 41.30561 1.62244 5047 ft 270 kts 124°
2026-05-05 12:23 41.29535 1.64333 4797 ft 267 kts 124°
2026-05-05 12:23 41.28532 1.66387 4548 ft 265 kts 124°
2026-05-05 12:23 41.27544 1.68428 4292 ft 258 kts 124°
2026-05-05 12:23 41.26593 1.70390 4053 ft 250 kts 124°
2026-05-05 12:24 41.25662 1.72307 3817 ft 243 kts 124°
2026-05-05 12:24 41.24755 1.74168 3588 ft 236 kts 124°
2026-05-05 12:24 41.23881 1.75959 3356 ft 230 kts 124°
2026-05-05 12:24 41.23013 1.77736 3146 ft 223 kts 124°
2026-05-05 12:25 41.22184 1.79434 2993 ft 214 kts 124°
2026-05-05 12:25 41.21427 1.81047 2966 ft 200 kts 115°
2026-05-05 12:25 41.21189 1.82770 2943 ft 186 kts 84°
2026-05-05 12:25 41.21551 1.84378 2965 ft 184 kts 67°
2026-05-05 12:26 41.22098 1.85942 2965 ft 185 kts 65°
2026-05-05 12:26 41.22648 1.87467 2983 ft 181 kts 66°
2026-05-05 12:26 41.23170 1.88930 2989 ft 171 kts 66°
2026-05-05 12:26 41.23672 1.90358 2722 ft 175 kts 66°
2026-05-05 12:27 41.24192 1.91813 2461 ft 171 kts 66°
2026-05-05 12:27 41.24698 1.93218 2229 ft 165 kts 66°
2026-05-05 12:27 41.25177 1.94585 2016 ft 164 kts 67°
2026-05-05 12:27 41.25652 1.95969 1800 ft 163 kts 67°
2026-05-05 12:28 41.26107 1.97304 1588 ft 156 kts 67°
2026-05-05 12:28 41.26545 1.98587 1384 ft 148 kts 67°
2026-05-05 12:28 41.26968 1.99827 1199 ft 145 kts 68°
2026-05-05 12:28 41.27380 2.01034 1018 ft 145 kts 68°
2026-05-05 12:29 41.27797 2.02256 834 ft 145 kts 67°
2026-05-05 12:29 41.28211 2.03468 644 ft 143 kts 67°
2026-05-05 12:29 41.28624 2.04674 458 ft 144 kts 68°
2026-05-05 12:29 41.29037 2.05885 267 ft 143 kts 68°
2026-05-05 12:30 41.29446 2.07083 83 ft 141 kts 66°
2026-05-05 12:30 41.29819 2.08184 28 ft 112 kts 70°
2026-05-05 12:30 41.30077 2.08948 22 ft 72 kts 68°
2026-05-05 12:30 41.30278 2.09546 19 ft 69 kts 65°
2026-05-05 12:31 41.30373 2.09808 19 ft 12 kts 54°
2026-05-05 12:31 41.30436 2.09837 19 ft 9 kts 344°
2026-05-05 12:31 41.30502 2.09798 19 ft 11 kts 336°
2026-05-05 12:31 41.30553 2.09768 19 ft 6 kts 336°
2026-05-05 12:32 41.30585 2.09723 19 ft 7 kts 281°
2026-05-05 12:32 41.30570 2.09643 19 ft 9 kts 246°
2026-05-05 12:32 41.30540 2.09553 19 ft 11 kts 246°
2026-05-05 12:32 41.30505 2.09449 20 ft 12 kts 245°
2026-05-05 12:33 41.30470 2.09347 22 ft 11 kts 245°
2026-05-05 12:33 41.30446 2.09280 21 ft 12 kts 245°
2026-05-05 12:33 41.30394 2.09127 23 ft 13 kts 248°
2026-05-05 12:33 41.30354 2.09006 23 ft 13 kts 245°
2026-05-05 12:34 41.30312 2.08887 24 ft 13 kts 244°
2026-05-05 12:34 41.30271 2.08770 24 ft 15 kts 245°
2026-05-05 12:34 41.30227 2.08645 26 ft 11 kts 244°
2026-05-05 12:34 41.30193 2.08550 26 ft 10 kts 244°
2026-05-05 12:35 41.30158 2.08452 26 ft 12 kts 247°
2026-05-05 12:35 41.30125 2.08349 28 ft 12 kts 246°
2026-05-05 12:35 41.30093 2.08271 30 ft 8 kts 220°
2026-05-05 12:35 41.30041 2.08268 30 ft 8 kts 149°
2026-05-05 12:36 41.30021 2.08285 29 ft 3 kts 152°
2026-05-05 12:36 41.29990 2.08306 29 ft 6 kts 155°
2026-05-05 12:36 41.29917 2.08344 27 ft 13 kts 158°
2026-05-05 12:36 41.29841 2.08387 25 ft 11 kts 156°
2026-05-05 12:37 41.29766 2.08432 24 ft 12 kts 155°
2026-05-05 12:37 41.29688 2.08476 23 ft 10 kts 165°
2026-05-05 12:37 41.29626 2.08450 23 ft 10 kts 232°
2026-05-05 12:37 41.29594 2.08372 24 ft 8 kts 245°
2026-05-05 12:38 41.29570 2.08284 23 ft 11 kts 257°
2026-05-05 12:38 41.29551 2.08172 23 ft 13 kts 249°
2026-05-05 12:38 41.29511 2.08052 22 ft 14 kts 245°
2026-05-05 12:38 41.29469 2.07931 22 ft 14 kts 245°
2026-05-05 12:39 41.29429 2.07813 22 ft 13 kts 245°
2026-05-05 12:39 41.29393 2.07707 21 ft 10 kts 246°
2026-05-05 12:39 41.29363 2.07620 19 ft 9 kts 244°
2026-05-05 12:39 41.29314 2.07574 19 ft 8 kts 200°
2026-05-05 12:40 41.29266 2.07550 19 ft 6 kts 205°
2026-05-05 12:40 41.29234 2.07526 20 ft 3 kts 213°
2026-05-05 12:40 41.29222 2.07514 20 ft 1 kts 215°
2026-05-05 12:40 41.29213 2.07506 21 ft 1 kts 215°
2026-05-05 12:41 41.29200 2.07494 21 ft 2 kts 216°
2026-05-05 12:41 41.29193 2.07487 21 ft 0 kts 217°
2026-05-05 12:41 41.29187 2.07481 21 ft 0 kts 217°
2026-05-05 12:41 41.29184 2.07478 21 ft 0 kts 216°
2026-05-05 12:42 41.29182 2.07476 21 ft 0 kts 216°